Regional Weather Roundup
Issued by NWS Albany, NY

Home | Current Version | Previous Version | Text Only | Print | Product List | Glossary On
Versions: 1 2 3 4 5 6 7 8 9 10 11 12 13 14 15 16 17 18 19 20 21 22 23 24 25 26 27 28 29 30 31 32 33 34 35 36 37 38 39 40 41 42 43 44 45 46 47 48 49 50
000
ASUS41 KALY 290310
RWRALY

NEW YORK STATE HOURLY WEATHER ROUNDUP
NATIONAL WEATHER SERVICE ALBANY NY
1100 PM EDT MON JUL 28 2014

NOTE: "FAIR" INDICATES FEW OR NO CLOUDS BELOW 12,000 FEET WITH NO
SIGNIFICANT WEATHER AND/OR NO OBSTRUCTIONS TO VISIBILITY.

NYZ032-033-038>043-046>054-057>066-NYZ062>081-290400-
EAST


CITY           SKY/WX    TMP DP  RH WIND       PRES   REMARKS
ALBANY         LGT RAIN  62  59  90 W14       29.67R FOG
GLENS FALLS    LGT RAIN  63  58  83 NW7       29.64R
POUGHKEEPSIE   CLOUDY    69  57  65 NW7       29.66R
NEWBURGH       PTCLDY    66  59  77 W12G23    29.70R
MONTGOMERY     CLOUDY    65  57  75 VRB7      29.70R
WHITE PLAINS   CLEAR     67  58  72 NW18      29.67R
ISLIP          PTCLDY    72  59  63 W14       29.64R
NEW YORK CITY  PTCLDY    71  58  63 NW15G26   29.68R
CENTRAL PARK   CLEAR     70  57  63 W9        29.72R
$$

NYZ005>009-017-018-044>046-055-056-290400-
CENTRAL


CITY           SKY/WX    TMP DP  RH WIND       PRES   REMARKS
FULTON         CLOUDY    61  55  81 NW6       29.79R
SYRACUSE       CLOUDY    59  58  96 W7        29.79R
ROME           CLOUDY    59  56  89 W12       29.77R
ELMIRA         CLOUDY    60  56  86 SW5       29.83R
BINGHAMTON     CLOUDY    56  54  93 NW7       29.81R
MONTICELLO     CLOUDY    59  55  88 W9        29.76R
$$

NYZ026>034-041>043-290400-
NORTH


CITY           SKY/WX    TMP DP  RH WIND       PRES   REMARKS
WATERTOWN      CLOUDY    60  52  74 W5        29.77S
FORT DRUM      NOT AVBL
MASSENA        CLOUDY    61  54  77 NW7       29.72R
SARANAC LAKE   CLOUDY    54  53  97 VRB3      29.71R FOG
PLATTSBURGH    CLOUDY    59  56  89 NW10      29.65R
$$

NYZ001>004-010>016-019>021-290400-
WEST


CITY           SKY/WX    TMP DP  RH WIND       PRES   REMARKS
NIAGARA FALLS  MOCLDY    59  51  75 NW9       29.87R
BUFFALO        PTCLDY    59  49  69 NW10      29.87R
DUNKIRK        CLOUDY    60  49  66 NW13      29.90R
JAMESTOWN      MOCLDY    55  50  82 NW10      29.91S
WELLSVILLE     CLOUDY    57  52  83 NW12      29.89S
ROCHESTER      CLOUDY    60  56  86 NW6       29.84R
PENN YAN       CLOUDY    60  56  86 VRB5      29.83R
$$

             KEY
       WCI = WIND CHILL INDEX
       VSB = VISIBILITY
       HX  = HEAT INDEX
$$


USA.gov is the U.S. government's official web portal to all federal, state and local government web resources and services.